Location: Unspecified
(0.0000°N, 0.0000°E)
Time: 15:08:18
(UTC+01:00)

Cosmos 1626 Rocket - Visible Passes

Search period start: 22 November 2014 00:00
Search period end: 02 December 2014 00:00
Orbit: 604 x 633 km, 82.5° (Epoch: 21 November)

Date Brightness Start Highest point End Pass type
(mag) Time Alt. Az. Time Alt. Az. Time Alt. Az.
22 Nov 3.5 19:45:17 10° S 19:49:45 77° E 19:54:12 10° N visible
23 Nov 4.7 20:02:39 10° SSW 20:06:55 45° W 20:11:10 10° NNW visible
24 Nov 6.1 20:20:47 10° SW 20:24:04 20° W 20:27:21 10° NW visible
26 Nov 3.6 19:16:22 10° S 19:20:50 81° E 19:25:17 10° N visible
27 Nov 4.9 19:33:46 10° SSW 19:38:00 42° W 19:42:12 10° NNW visible
28 Nov 7.2 06:08:36 10° E 06:08:55 10° E 06:09:15 10° E visible
28 Nov 6.4 19:51:58 10° SW 19:55:09 19° W 19:58:19 10° NW visible
